Regional Weather Roundup
Issued by NWS

Home | Current Version | Previous Version | Text Only | Print | Product List | Glossary Off
Versions: 1 2 3 4 5 6 7 8 9 10 11 12 13 14 15 16 17 18 19 20 21 22 23 24 25 26 27 28 29 30 31 32 33 34 35 36 37 38 39 40 41 42 43 44 45 46 47 48 49 50

000
ASUS43 KLOT 042200
RWRIL

ILLINOIS REGIONAL WEATHER ROUNDUP
NATIONAL WEATHER SERVICE CHICAGO/ROMEOVILLE IL
500 PM CDT FRI SEP 04 2015

NOTE: "FAIR" INDICATES FEW OR NO CLOUDS BELOW 12,000 FEET WITH NO
SIGNIFICANT WEATHER AND/OR OBSTRUCTIONS TO VISIBILITY.

* THESE STATIONS ARE NOT UNDER NWS QUALITY CONTROL. THEY ALSO MAY NOT
  REPORT WEATHER SUCH AS PRECIPITATION OR FOG.

ILZ001-002-007-009-015-016-024-042300-
NORTHWEST ILLINOIS

CITY           SKY/WX    TMP DP  RH WIND       PRES   REMARKS
MOLINE         MOSUNNY   92  67  43 S8        29.95F HX  95
STERLING*      MOSUNNY  N/A N/A N/A CALM      29.95F
$$

ILZ003-004-008-010-011-017-018-042300-
NORTH CENTRAL ILLINOIS

CITY           SKY/WX    TMP DP  RH WIND       PRES   REMARKS
ROCKFORD       MOSUNNY   90  70  51 NW6       30.00S HX  95
FREEPORT*      SUNNY     87  70  58 CALM      30.00F HX  91
$$

ILZ005-006-012>014-019>023-042300-
NORTHEAST ILLINOIS

CITY           SKY/WX    TMP DP  RH WIND       PRES   REMARKS
CHICAGO-OHARE  PTSUNNY   80  67  64 E8        30.01R HX  82
CHICAGO-MIDWAY PTSUNNY   79  67  66 E12       30.01R HX  81
AURORA         SUNNY     88  73  61 NW5       29.99F HX  95
LANSING*       SUNNY     78  68  72 E9        30.01S
WAUKEGAN       MOSUNNY   71  66  84 NE7       30.02F
DUPAGE AIRPORT MOSUNNY   88  70  55 VRB3      29.99S HX  93
WHEELING       MOSUNNY   76  67  73 NE9       30.03R
NORTHERLY ISL    N/A     72  66  81 NE8         N/A
$$

LMZ740>746-042300-
SOUTHERN LAKE MICHIGAN

STATION/POSITION SKY/WX   TEMP    WIND        PRES    VSBY  WAVE
                          AIR SEA DIR/SP/G                  HT/PER
                          (F)     (DEG/KT/KT) (MB)    (MI)  (FT/S)
SOUTHERN BUOY              68 71   10/  8/ 10 1016.6R         1
WILMETTE HARBOR            70 71  240/  6/  8   N/A           1/ 4
HARRISON CRIB              70      30/  6/  8   N/A
BURNHAM HARBOR             72      30/  6/  9   N/A
CALUMET HARBOR             73      30/  8/ 10   N/A
BURNS HARBOR               73      50/ 11/ 13 1016.9S
MICHIGAN CITY              71      20/  9/ 10   N/A
MICHIGAN CITY 6N           71 74   50/  6/ 10   N/A           2/ 4
ST. JOSEPH                 71 77   40/  8/  8   N/A           1/ 3
$$

ILZ025>027-034>036-040-047-049-050-058-095>099-042300-
WEST-CENTRAL ILLINOIS

CITY           SKY/WX    TMP DP  RH WIND       PRES   REMARKS
QUINCY         MOSUNNY   91  67  44 VRB6      29.97S HX  94
$$

ILZ028>032-037-038-041>044-048-051>054-059>061-042300-
CENTRAL ILLINOIS

CITY           SKY/WX    TMP DP  RH WIND       PRES   REMARKS
DECATUR        MOSUNNY   93  65  39 S10       29.98F HX  95
PEORIA         SUNNY     95  67  39 NW6       29.97S HX  99
SPRINGFIELD    SUNNY     94  66  39 SW6       29.98S HX  97
TAYLORVILLE    NOT AVBL
$$

ILZ033-039-045-046-055>057-062-063-042300-
EAST-CENTRAL ILLINOIS

CITY           SKY/WX    TMP DP  RH WIND       PRES   REMARKS
CHAMPAIGN      MOSUNNY   93  66  40 SW3       30.00R HX  96
MATTOON        MOSUNNY   92  66  42 S5        29.99S HX  94
$$

ILZ079-100>102-042300-
SOUTHWEST ILLINOIS

CITY           SKY/WX    TMP DP  RH WIND       PRES   REMARKS
ALTON          MOSUNNY   90  70  51 VRB5      29.99S HX  95
BELLEVILLE     SUNNY     92  71  50 VRB3      29.98S HX  99
CAHOKIA*       SUNNY     93  66  40 SE7       29.98S HX  96
SPARTA*        SUNNY     90  70  52 CALM      30.01S HX  95
$$

ILZ064>066-069>071-074>076-080>082-084>086-088>090-092>094-042300-
SOUTH-CENTRAL ILLINOIS

CITY           SKY/WX    TMP DP  RH WIND       PRES   REMARKS
CARBONDALE     SUNNY     90  69  50 VRB5      29.99F HX  94
MARION         MOSUNNY   93  66  40 SW6       30.01S HX  96
MT. VERNON     SUNNY     93  66  40 S6        30.01S HX  96
CENTRALIA*     MOSUNNY   92  70  48 CALM      29.99S HX  97
SALEM*         SUNNY     92  66  42 W5        30.00S HX  95
$$

ILZ067-068-072-073-078-083-087-091-042300-
SOUTHEAST ILLINOIS

CITY           SKY/WX    TMP DP  RH WIND       PRES   REMARKS
LAWRENCEVILLE  SUNNY     94  65  38 SW8       30.00R HX  96
FLORA*         SUNNY     93  64  38 S6        30.00S HX  95
ROBINSON*      SUNNY     92  66  42 S6        30.01R HX  95
$$

ABBREVIATIONS USED IN REMARKS
   TC - TEMPERATURE IN CELSIUS
  WCI - WIND CHILL INDEX
   HX - HEAT INDEX
  VSB - VISIBILITY
$$



USA.gov is the U.S. government's official web portal to all federal, state and local government web resources and services.